Regional Weather Roundup
Issued by NWS State College, PA

Home | Current Version | Previous Version | Text Only | Print | Product List | Glossary On
Versions: 1 2 3 4 5 6 7 8 9 10 11 12 13 14 15 16 17 18 19 20 21 22 23 24 25 26 27 28 29 30 31 32 33 34 35 36 37 38 39 40 41 42 43 44 45 46 47 48 49 50
000
ASUS41 KCTP 230810
RWRCTP

REGIONAL WEATHER ROUNDUP
NATIONAL WEATHER SERVICE STATE COLLEGE PA
400 AM EDT SAT AUG 23 2014

Note: "fair" indicates few or no clouds below 12,000 feet with no
significant weather and/or obstructions to visibility.

* = STATION THAT DOES NOT REPORT PRECIPITATION /E.G. RAIN...SNOW...ETC/
    THUNDER OR FOG.

PAZ002>004-007>009-013>016-020>023-029>032-230900-
WESTERN PENNSYLVANIA

CITY           SKY/WX    TMP DP  RH WIND       PRES   REMARKS
ERIE           CLOUDY    66  63  90 CALM      29.99R
MEADVILLE      PTCLDY    63  62  97 CALM      30.01R FOG
FRANKLIN*      CLOUDY    61  59  94 CALM      30.01S VSB 1/4
NEW CASTLE     NOT AVBL
BEAVER COUNTY  NOT AVBL
BUTLER*        CLOUDY    66  64  94 E3        30.00S VSB 1/4
PITTSBURGH INT FOG       69  69 100 CALM      29.97F VSB 1/8
PITTSBURGH     CLOUDY    69  67  93 W3        29.96F FOG
INDIANA*       CLOUDY    70  68  94 CALM      30.02F FOG
LATROBE        CLOUDY    70  70 100 CALM      29.98F FOG
WASHINGTON CO* CLOUDY    66  66 100 CALM      29.98F VSB 1/4
$$

PAZ004>006-010>012-017>019-024>028-033>037-041-042-045-046-049>053-230900-
CENTRAL PENNSYLVANIA

CITY           SKY/WX    TMP DP  RH WIND       PRES   REMARKS
BRADFORD       FOG       65  63  93 CALM      30.02F VSB 1/2
DUBOIS         FOG       66  66 100 CALM      30.00F VSB 1/4
CLEARFIELD     FOG       66  66 100 NE3       30.00F VSB 1/4
JOHNSTOWN      CLOUDY    68  65  90 S6        30.02F FOG
ALTOONA        CLOUDY    69  68  96 S6        30.01S FOG
STATE COLLEGE  CLOUDY    68  66  94 CALM      30.00S FOG
WILLIAMSPORT   CLOUDY    67  63  87 E15       29.99F
SELINSGROVE    LGT RAIN  68  65  90 CALM      30.01S
FT INDIANTOWN  CLOUDY    64  64 100 NE3       30.03S
CAPITAL CITY   CLOUDY    69  59  70 SE7       30.01S
HARRISBURG     CLOUDY    70  59  68 SE7       30.00S
YORK           CLOUDY    68  64  87 E6        30.00F
$$

PAZ038>040-043-044-047-048-054-055-060>062-067>071-230900-
EASTERN PENNSYLVANIA

CITY           SKY/WX    TMP DP  RH WIND       PRES   REMARKS
SCRANTON       LGT RAIN  66  59  78 NE3       30.04S
MOUNT POCONO   CLOUDY    60  58  92 E8        30.08R FOG
ALLENTOWN      CLOUDY    67  61  81 NE5       30.04R
QUAKERTOWN*    PTSUNNY   64  63  94 CALM      30.05R
READING        CLOUDY    69  60  73 CALM      30.02R
LANCASTER      CLOUDY    67  61  81 E3        30.02S
COATESVILLE    CLOUDY    66  66 100 E8        30.04R
POTTSTOWN      CLOUDY    65  61  87 NE3       30.04S
BLUE BELL      PTCLDY    64  63  94 CALM      30.02F
DOYLESTOWN     CLOUDY    64  63  96 CALM      30.03S
WILLOW GROVE   NOT AVBL
NORTH PHILA    MOCLDY    69  61  75 NE8       30.04R
PHILADELPHIA   MOCLDY    68  62  81 E7        30.02S
$$



USA.gov is the U.S. government's official web portal to all federal, state and local government web resources and services.